Portada
METAR-TAF:

METAR-TAF

Aeroports :

Lansing Municipal Airport

Lansing, Illinois, Estats Units d'Amèrica

latitud: 41-32-24N, longitud: 087-31-56W, altitud: 188 m

Observació

L'informe es va fer fa 13 minuts, a les 06:15 UTC
Vent 7 kt del Oest/Nord-Oest
Temperatura 17°C
Humitat 82%
Pressió 1014 hPa
Visibilitat: 16.1 km
Cel cobert a una alçada de 2800 ft

METAR: KIGQ 260615Z AUTO 30007KT 10SM OVC028 17/14 A2994 RMK AO2 T01700136

Hora: 01:28 (06:28 UTC)


TAF: manca

Observacions i pronòstics meteorològics de més de 4000 aeroports (METAR i TAF).

Les estacions disponibles són els punts grocs i vermells al mapa.

Posi el ratolí al punt desitjat per veure el nom de l'estació.

Feu clic per veure les observacions i els pronòstics meteorològics.

Per canviar el mapa: feu clic els botons verds amb una creu de color negre per apropar; al botó verd amb un guió per allunyar la imatge; o en les fletxes verdes per a mapes adjacents.


METAR-TAF: